Location: Elmsmere
(40.9284°N, 73.8207°W)
Time: 05:30:46
(UTC+00:00)

H-2A R/B - Pass Details

Date: 29 October 2020
Orbit: 733 x 837 km, 98.2° (Epoch: 29 November)

Event Time Altitude Azimuth Distance (km) Brightness Sun altitude
Exits shadow 22:58:22 - 131° (SE) 2,995 4.7 -12.6°
Reaches altitude 10° 22:59:59 10° 124° (ESE) 2,434 4.2 -12.9°
Maximum altitude 23:04:32 28° 66° (ENE) 1,510 3.0 -13.8°
Drops below altitude 10° 23:09:08 10° 9° (N) 2,459 4.5 -14.7°
Sets 23:11:47 0° 358° (N) 3,394 5.3 -15.2°
